This is the latest recevied weather packets stored in our database for station/object DG1JLA-3. If no packets are shown the sender has not sent any weather packets the latest 10 day(s).
| Time | Temp. | Humidity | Pressure | Rain* | Wind** | Luminosity | Snow |
|---|---|---|---|---|---|---|---|
| 1777557008 | 13.89° C | 47% | 1033.8 hPa | 0 mm | - | - | - |
| 1777556708 | 13.89° C | 47% | 1034 hPa | 0 mm | - | - | - |
| 1777556408 | 13.89° C | 46% | 1033.9 hPa | 0 mm | - | - | - |
| 1777556108 | 13.33° C | 47% | 1034.1 hPa | 0 mm | - | - | - |
| 1777555808 | 13.89° C | 47% | 1034.1 hPa | 0 mm | - | - | - |
| 1777555508 | 13.33° C | 44% | 1034.2 hPa | 0 mm | - | - | - |
| 1777555208 | 13.89° C | 46% | 1034.1 hPa | 0 mm | - | - | - |
| 1777554908 | 13.89° C | 45% | 1034.2 hPa | 0 mm | - | - | - |
| 1777554608 | 13.33° C | 46% | 1034.3 hPa | 0 mm | - | - | - |
| 1777554309 | 13.33° C | 45% | 1034.3 hPa | 0 mm | - | - | - |
| 1777554008 | 13.89° C | 46% | 1034.5 hPa | 0 mm | - | - | - |
| 1777553709 | 13.89° C | 44% | 1034.5 hPa | 0 mm | - | - | - |
| 1777553409 | 13.33° C | 45% | 1034.4 hPa | 0 mm | - | - | - |
| 1777553109 | 13.33° C | 43% | 1034.6 hPa | 0 mm | - | - | - |
| 1777552809 | 13.33° C | 45% | 1034.4 hPa | 0 mm | - | - | - |
| 1777552509 | 13.33° C | 44% | 1034.4 hPa | 0 mm | - | - | - |
| 1777552209 | 13.33° C | 44% | 1034.5 hPa | 0 mm | - | - | - |
| 1777551909 | 13.33° C | 42% | 1034.6 hPa | 0 mm | - | - | - |
| 1777551609 | 13.33° C | 43% | 1034.6 hPa | 0 mm | - | - | - |
| 1777551309 | 13.33° C | 43% | 1034.7 hPa | 0 mm | - | - | - |
| 1777551009 | 13.33° C | 41% | 1034.6 hPa | 0 mm | - | - | - |
| 1777550709 | 13.33° C | 41% | 1034.6 hPa | 0 mm | - | - | - |
| 1777550409 | 13.33° C | 44% | 1034.7 hPa | 0 mm | - | - | - |
| 1777550109 | 13.33° C | 43% | 1034.7 hPa | 0 mm | - | - | - |
| 1777549809 | 13.33° C | 42% | 1034.6 hPa | 0 mm | - | - | - |
* Rain latest hour (hover to see other rain measurements)
** Current wind speed in m/s (hover to see current wind gust speed)